Regional Weather Roundup
Issued by NWS

Home | Current Version | Previous Version | Graphics & Text | Print | Product List | Glossary On
Versions: 1 2 3 4 5 6 7 8 9 10 11 12 13 14 15 16 17 18 19 20 21 22 23 24 25 26 27 28 29 30 31 32 33 34 35 36 37 38 39 40 41 42 43 44 45 46 47 48 49 50
000
ASUS43 KFSD 250310
RWRSD

WEATHER ROUNDUP FOR SOUTH DAKOTA
NATIONAL WEATHER SERVICE SIOUX FALLS SD
900 PM CST WED DEC 24 2014

NOTE: "FAIR" INDICATES FEW OR NO CLOUDS BELOW 12,000 FEET WITH NO
SIGNIFICANT WEATHER AND/OR OBSTRUCTIONS TO VISIBILITY.


SDZ001>005-009-010-012>017-250400-
NORTHWEST AND NORTH CENTRAL SOUTH DAKOTA

CITY           SKY/WX    TMP DP  RH WIND       PRES   REMARKS
BUFFALO          N/A     35  29  78 N9        29.38S WCI  28
FAITH            N/A     35  24  64 W3        29.44S
MOBRIDGE       CLOUDY    28  23  81 SE7       29.45R WCI  21
$$

SDZ012>016-024>037-041>051-057-063-072>074-250400-
SOUTHWEST AND SOUTH CENTRAL SOUTH DAKOTA

CITY           SKY/WX    TMP DP  RH WIND       PRES   REMARKS
RAPID CTY ARPT CLOUDY    34  26  72 NW7       29.42F WCI  28
PIERRE         CLOUDY    25  21  85 E3        29.47F
CUSTER         CLOUDY    32  18  56 VRB3      29.43F
ELLSWORTH AFB  CLOUDY    34  27  76 NW6       29.41  WCI  28
PHILIP         CLOUDY    29  24  82 CALM      29.44F
PINE RIDGE     CLOUDY    31  23  72 SW7       29.45F WCI  24
SPEARFISH      MOCLDY    32  27  80 S5        29.42F WCI  27
WINNER         FAIR      36  24  62 SW13      29.48F
$$

SDZ004>011-016>023-039-040-250400-
NORTHEAST SOUTH DAKOTA

CITY           SKY/WX    TMP DP  RH WIND       PRES   REMARKS
ABERDEEN       CLOUDY    28  25  88 S10       29.52S WCI  19
WATERTOWN      MOCLDY    24  22  91 S9        29.52F WCI  14
$$

SDZ017-020-022-023-036>040-048>070-250400-
SOUTHEAST SOUTH DAKOTA

CITY           SKY/WX    TMP DP  RH WIND       PRES   REMARKS
SIOUX FALLS    CLOUDY    26  24  92 S12       29.60F WCI  16
HURON          PTCLDY    25  23  92 S14       29.52F WCI  13
CHAMBERLAIN    MOCLDY    22  19  90 SE3       29.50F
MITCHELL       PTCLDY    28  25  88 S10       29.55F WCI  19
YANKTON        CLEAR     25  21  86 E8        29.62F WCI  16
$$

ABBREVIATIONS USED IN REMARKS
   TC - TEMPERATURE IN CELSIUS
  WCI - WIND CHILL INDEX
   HX - HEAT INDEX
  VSB - VISIBILITY



USA.gov is the U.S. government's official web portal to all federal, state and local government web resources and services.